Time,TemperatureF,DewpointF,PressureIn,WindDirection,WindDirectionDegrees,WindSpeedMPH,WindSpeedGustMPH,Humidity,HourlyPrecipIn,Conditions,Clouds,dailyrainin,SoftwareType,DateUTC
2013-02-07 00:01:00,45.0,42.0,29.79,SE,133,1.0,-999.0,88,-99.99,,,-99.99,,2013-02-07 08:01:00,
2013-02-07 00:11:00,45.0,42.0,29.79,SE,133,1.0,-999.0,88,-99.99,,,-99.99,,2013-02-07 08:11:00,
2013-02-07 00:21:00,45.0,41.0,29.80,South,180,2.0,-999.0,85,-99.99,,,-99.99,,2013-02-07 08:21:00,
2013-02-07 00:31:00,45.0,41.0,29.79,South,179,0.0,-999.0,85,-99.99,,,-99.99,,2013-02-07 08:31:00,
2013-02-07 00:41:00,45.0,41.0,29.79,South,179,0.0,-999.0,85,-99.99,,,-99.99,,2013-02-07 08:41:00,
2013-02-07 00:52:00,45.0,41.0,29.80,South,191,1.0,-999.0,85,-99.99,,,-99.99,,2013-02-07 08:52:00,
2013-02-07 01:01:00,45.0,41.0,29.80,South,181,1.0,-999.0,86,-99.99,,,-99.99,,2013-02-07 09:01:00,
2013-02-07 01:11:00,45.0,41.0,29.80,South,181,1.0,-999.0,86,-99.99,,,-99.99,,2013-02-07 09:11:00,
2013-02-07 01:21:00,45.0,42.0,29.80,South,180,2.0,-999.0,88,-99.99,,,-99.99,,2013-02-07 09:21:00,
2013-02-07 01:31:00,45.0,42.0,29.83,ESE,122,2.0,-999.0,88,-99.99,,,-99.99,,2013-02-07 09:31:00,
2013-02-07 01:41:00,45.0,42.0,29.83,ESE,122,2.0,-999.0,88,-99.99,,,-99.99,,2013-02-07 09:41:00,
2013-02-07 01:52:00,44.0,42.0,29.84,South,169,4.0,-999.0,91,-99.99,,,-99.99,,2013-02-07 09:52:00,
2013-02-07 02:01:00,43.0,41.0,29.85,ESE,118,5.0,-999.0,93,-99.99,,,-99.99,,2013-02-07 10:01:00,
2013-02-07 02:11:00,43.0,41.0,29.85,ESE,118,5.0,-999.0,93,-99.99,,,-99.99,,2013-02-07 10:11:00,
2013-02-07 02:22:00,42.0,40.0,29.85,SSE,164,4.0,-999.0,94,-99.99,,,-99.99,,2013-02-07 10:22:00,
2013-02-07 02:31:00,42.0,40.0,29.86,SSE,167,3.0,-999.0,94,-99.99,,,-99.99,,2013-02-07 10:31:00,
2013-02-07 02:41:00,42.0,40.0,29.86,SSE,167,3.0,-999.0,94,-99.99,,,-99.99,,2013-02-07 10:41:00,
2013-02-07 02:52:00,42.0,40.0,29.86,SE,133,5.0,-999.0,94,-99.99,,,-99.99,,2013-02-07 10:52:00,
2013-02-07 03:01:00,42.0,41.0,29.87,SE,142,3.0,-999.0,95,-99.99,,,-99.99,,2013-02-07 11:01:00,
2013-02-07 03:11:00,42.0,41.0,29.87,SE,142,3.0,-999.0,95,-99.99,,,-99.99,,2013-02-07 11:11:00,
2013-02-07 03:22:00,42.0,40.0,29.87,South,178,4.0,-999.0,94,-99.99,,,-99.99,,2013-02-07 11:22:00,
2013-02-07 03:32:00,42.0,40.0,29.88,South,171,4.0,-999.0,94,-99.99,,,-99.99,,2013-02-07 11:32:00,
2013-02-07 03:43:00,42.0,40.0,29.88,South,171,4.0,-999.0,94,-99.99,,,-99.99,,2013-02-07 11:43:00,
2013-02-07 03:52:00,42.0,40.0,29.88,South,171,4.0,-999.0,93,-99.99,,,-99.99,,2013-02-07 11:52:00,
2013-02-07 04:01:00,42.0,40.0,29.89,SSE,165,4.0,-999.0,93,-99.99,,,-99.99,,2013-02-07 12:01:00,
2013-02-07 04:11:00,42.0,40.0,29.89,SSE,165,4.0,-999.0,93,-99.99,,,-99.99,,2013-02-07 12:11:00,
2013-02-07 04:21:00,42.0,40.0,29.89,SE,146,3.0,-999.0,92,-99.99,,,-99.99,,2013-02-07 12:21:00,
2013-02-07 04:32:00,42.0,40.0,29.90,SE,137,5.0,-999.0,91,-99.99,,,-99.99,,2013-02-07 12:32:00,
2013-02-07 04:41:00,42.0,40.0,29.90,SE,137,5.0,-999.0,91,-99.99,,,-99.99,,2013-02-07 12:41:00,
2013-02-07 04:53:00,42.0,39.0,29.91,South,186,5.0,-999.0,90,-99.99,,,-99.99,,2013-02-07 12:53:00,
2013-02-07 05:02:00,42.0,39.0,29.91,WSW,241,6.0,-999.0,88,-99.99,,,-99.99,,2013-02-07 13:02:00,
2013-02-07 05:11:00,42.0,39.0,29.91,WSW,241,6.0,-999.0,88,-99.99,,,-99.99,,2013-02-07 13:11:00,
2013-02-07 05:21:00,42.0,38.0,29.91,SSE,155,5.0,-999.0,87,-99.99,,,-99.99,,2013-02-07 13:21:00,
2013-02-07 05:31:00,42.0,38.0,29.92,SSE,168,5.0,-999.0,87,-99.99,,,-99.99,,2013-02-07 13:31:00,
2013-02-07 05:41:00,42.0,38.0,29.92,SSE,168,5.0,-999.0,87,-99.99,,,-99.99,,2013-02-07 13:41:00,
2013-02-07 05:52:00,42.0,38.0,29.93,South,182,5.0,-999.0,86,-99.99,,,-99.99,,2013-02-07 13:52:00,
2013-02-07 06:01:00,42.0,38.0,29.93,South,179,4.0,-999.0,86,-99.99,,,-99.99,,2013-02-07 14:01:00,
2013-02-07 06:11:00,42.0,38.0,29.93,South,179,4.0,-999.0,86,-99.99,,,-99.99,,2013-02-07 14:11:00,
2013-02-07 06:21:00,42.0,38.0,29.95,SSE,164,3.0,-999.0,86,-99.99,,,-99.99,,2013-02-07 14:21:00,
2013-02-07 06:31:00,42.0,38.0,29.95,SSE,164,2.0,-999.0,86,-99.99,,,-99.99,,2013-02-07 14:31:00,
2013-02-07 06:41:00,42.0,38.0,29.95,SSE,164,2.0,-999.0,86,-99.99,,,-99.99,,2013-02-07 14:41:00,
2013-02-07 06:52:00,42.0,38.0,29.95,SW,222,3.0,-999.0,87,-99.99,,,-99.99,,2013-02-07 14:52:00,
2013-02-07 07:01:00,42.0,38.0,29.95,South,175,3.0,-999.0,87,-99.99,,,-99.99,,2013-02-07 15:01:00,
2013-02-07 07:11:00,42.0,38.0,29.95,South,175,3.0,-999.0,87,-99.99,,,-99.99,,2013-02-07 15:11:00,
2013-02-07 07:21:00,42.0,38.0,29.96,South,182,2.0,-999.0,87,-99.99,,,-99.99,,2013-02-07 15:21:00,
2013-02-07 07:31:00,41.0,38.0,29.96,South,179,2.0,-999.0,88,-99.99,,,-99.99,,2013-02-07 15:31:00,
2013-02-07 07:41:00,41.0,38.0,29.96,South,179,2.0,-999.0,88,-99.99,,,-99.99,,2013-02-07 15:41:00,
2013-02-07 07:52:00,41.0,38.0,29.96,South,178,2.0,-999.0,89,-99.99,,,-99.99,,2013-02-07 15:52:00,
2013-02-07 08:01:00,40.0,37.0,29.98,South,190,2.0,-999.0,90,-99.99,,,-99.99,,2013-02-07 16:01:00,
2013-02-07 08:11:00,40.0,37.0,29.98,South,190,2.0,-999.0,90,-99.99,,,-99.99,,2013-02-07 16:11:00,
2013-02-07 08:21:00,40.0,37.0,29.98,South,191,1.0,-999.0,90,-99.99,,,-99.99,,2013-02-07 16:21:00,
2013-02-07 08:31:00,40.0,37.0,29.98,SSW,192,2.0,-999.0,90,-99.99,,,-99.99,,2013-02-07 16:31:00,
2013-02-07 08:41:00,40.0,37.0,29.98,SSW,192,2.0,-999.0,90,-99.99,,,-99.99,,2013-02-07 16:41:00,
2013-02-07 08:52:00,41.0,38.0,29.99,South,173,3.0,-999.0,90,-99.99,,,-99.99,,2013-02-07 16:52:00,
2013-02-07 09:01:00,41.0,38.0,30.00,South,175,2.0,-999.0,90,-99.99,,,-99.99,,2013-02-07 17:01:00,
2013-02-07 09:11:00,41.0,38.0,30.00,South,175,2.0,-999.0,90,-99.99,,,-99.99,,2013-02-07 17:11:00,
2013-02-07 09:21:00,41.0,38.0,30.01,South,180,4.0,-999.0,90,-99.99,,,-99.99,,2013-02-07 17:21:00,
2013-02-07 09:31:00,42.0,39.0,30.01,South,176,2.0,-999.0,89,-99.99,,,-99.99,,2013-02-07 17:31:00,
2013-02-07 09:41:00,42.0,39.0,30.01,South,176,2.0,-999.0,89,-99.99,,,-99.99,,2013-02-07 17:41:00,
2013-02-07 09:52:00,42.0,39.0,30.01,South,173,3.0,-999.0,89,-99.99,,,-99.99,,2013-02-07 17:52:00,
2013-02-07 10:01:00,42.0,39.0,30.01,SSE,161,2.0,-999.0,89,-99.99,,,-99.99,,2013-02-07 18:01:00,
2013-02-07 10:11:00,42.0,39.0,30.01,SSE,161,2.0,-999.0,89,-99.99,,,-99.99,,2013-02-07 18:11:00,
2013-02-07 10:22:00,42.0,39.0,30.01,SSE,167,3.0,-999.0,89,-99.99,,,-99.99,,2013-02-07 18:22:00,
2013-02-07 10:31:00,42.0,39.0,30.02,South,177,3.0,-999.0,88,-99.99,,,-99.99,,2013-02-07 18:31:00,
2013-02-07 10:41:00,42.0,39.0,30.02,South,177,3.0,-999.0,88,-99.99,,,-99.99,,2013-02-07 18:41:00,
2013-02-07 10:52:00,43.0,39.0,30.03,SSE,150,3.0,-999.0,87,-99.99,,,-99.99,,2013-02-07 18:52:00,
2013-02-07 11:01:00,43.0,39.0,30.03,South,170,2.0,-999.0,87,-99.99,,,-99.99,,2013-02-07 19:01:00,
2013-02-07 11:11:00,43.0,39.0,30.03,South,170,2.0,-999.0,87,-99.99,,,-99.99,,2013-02-07 19:11:00,
2013-02-07 11:21:00,43.0,39.0,30.03,South,181,3.0,-999.0,86,-99.99,,,-99.99,,2013-02-07 19:21:00,
2013-02-07 11:31:00,44.0,40.0,30.03,South,185,3.0,-999.0,85,-99.99,,,-99.99,,2013-02-07 19:31:00,
2013-02-07 11:41:00,44.0,40.0,30.03,South,185,3.0,-999.0,85,-99.99,,,-99.99,,2013-02-07 19:41:00,
2013-02-07 11:52:00,44.0,39.0,30.03,South,171,3.0,-999.0,83,-99.99,,,-99.99,,2013-02-07 19:52:00,
2013-02-07 12:01:00,45.0,40.0,30.03,SSW,207,3.0,-999.0,81,-99.99,,,-99.99,,2013-02-07 20:01:00,
2013-02-07 12:11:00,45.0,40.0,30.03,SSW,207,3.0,-999.0,81,-99.99,,,-99.99,,2013-02-07 20:11:00,
2013-02-07 12:21:00,45.0,39.0,30.03,SE,128,2.0,-999.0,80,-99.99,,,-99.99,,2013-02-07 20:21:00,
2013-02-07 12:31:00,46.0,40.0,30.03,SSW,192,3.0,-999.0,78,-99.99,,,-99.99,,2013-02-07 20:31:00,
2013-02-07 12:41:00,46.0,40.0,30.03,SSW,192,3.0,-999.0,78,-99.99,,,-99.99,,2013-02-07 20:41:00,
2013-02-07 12:52:00,46.0,39.0,30.03,South,181,2.0,-999.0,77,-99.99,,,-99.99,,2013-02-07 20:52:00,
2013-02-07 13:01:00,46.0,39.0,30.03,South,175,3.0,-999.0,75,-99.99,,,-99.99,,2013-02-07 21:01:00,
2013-02-07 13:11:00,46.0,39.0,30.03,South,175,3.0,-999.0,75,-99.99,,,-99.99,,2013-02-07 21:11:00,
2013-02-07 13:21:00,47.0,39.0,30.03,South,171,2.0,-999.0,73,-99.99,,,-99.99,,2013-02-07 21:21:00,
2013-02-07 13:31:00,47.0,38.0,30.03,SSE,149,2.0,-999.0,71,-99.99,,,-99.99,,2013-02-07 21:31:00,
2013-02-07 13:41:00,47.0,38.0,30.03,SSE,149,2.0,-999.0,71,-99.99,,,-99.99,,2013-02-07 21:41:00,
2013-02-07 13:52:00,48.0,38.0,30.03,SE,132,1.0,-999.0,69,-99.99,,,-99.99,,2013-02-07 21:52:00,
2013-02-07 14:01:00,48.0,38.0,30.02,SE,138,1.0,-999.0,69,-99.99,,,-99.99,,2013-02-07 22:01:00,
2013-02-07 14:11:00,48.0,38.0,30.02,SE,138,1.0,-999.0,69,-99.99,,,-99.99,,2013-02-07 22:11:00,
2013-02-07 14:21:00,48.0,38.0,30.03,South,175,1.0,-999.0,68,-99.99,,,-99.99,,2013-02-07 22:21:00,
2013-02-07 14:31:00,48.0,38.0,30.03,WNW,286,1.0,-999.0,67,-99.99,,,-99.99,,2013-02-07 22:31:00,
2013-02-07 14:42:00,48.0,38.0,30.03,WNW,286,1.0,-999.0,67,-99.99,,,-99.99,,2013-02-07 22:42:00,
2013-02-07 14:52:00,47.0,36.0,30.03,NW,307,0.0,-999.0,66,-99.99,,,-99.99,,2013-02-07 22:52:00,
2013-02-07 15:01:00,48.0,38.0,30.03,North,10,0.0,-999.0,68,-99.99,,,-99.99,,2013-02-07 23:01:00,
2013-02-07 15:11:00,48.0,38.0,30.03,North,10,0.0,-999.0,68,-99.99,,,-99.99,,2013-02-07 23:11:00,
2013-02-07 15:21:00,47.0,37.0,30.03,SSW,207,0.0,-999.0,68,-99.99,,,-99.99,,2013-02-07 23:21:00,
2013-02-07 15:31:00,47.0,37.0,30.03,NW,319,1.0,-999.0,68,-99.99,,,-99.99,,2013-02-07 23:31:00,
2013-02-07 15:41:00,47.0,37.0,30.03,NW,319,1.0,-999.0,68,-99.99,,,-99.99,,2013-02-07 23:41:00,
2013-02-07 15:52:00,47.0,37.0,30.04,SSE,163,0.0,-999.0,68,-99.99,,,-99.99,,2013-02-07 23:52:00,
2013-02-07 16:01:00,47.0,37.0,30.04,SSE,162,0.0,-999.0,68,-99.99,,,-99.99,,2013-02-08 00:01:00,
2013-02-07 16:11:00,47.0,37.0,30.04,SSE,162,0.0,-999.0,68,-99.99,,,-99.99,,2013-02-08 00:11:00,
2013-02-07 16:21:00,47.0,37.0,30.04,SSE,162,0.0,-999.0,68,-99.99,,,-99.99,,2013-02-08 00:21:00,
2013-02-07 16:31:00,46.0,35.0,30.05,SSE,163,0.0,-999.0,66,-99.99,,,-99.99,,2013-02-08 00:31:00,
2013-02-07 16:41:00,46.0,35.0,30.05,SSE,163,0.0,-999.0,66,-99.99,,,-99.99,,2013-02-08 00:41:00,
2013-02-07 16:52:00,46.0,37.0,30.05,SSE,163,0.0,-999.0,72,-99.99,,,-99.99,,2013-02-08 00:52:00,
2013-02-07 17:01:00,45.0,37.0,30.06,SSE,163,0.0,-999.0,72,-99.99,,,-99.99,,2013-02-08 01:01:00,
2013-02-07 17:11:00,45.0,37.0,30.06,SSE,163,0.0,-999.0,72,-99.99,,,-99.99,,2013-02-08 01:11:00,
2013-02-07 17:21:00,44.0,36.0,30.06,SSE,163,0.0,-999.0,74,-99.99,,,-99.99,,2013-02-08 01:21:00,
2013-02-07 17:31:00,43.0,36.0,30.07,SSE,163,0.0,-999.0,76,-99.99,,,-99.99,,2013-02-08 01:31:00,
2013-02-07 17:41:00,43.0,36.0,30.07,SSE,163,0.0,-999.0,76,-99.99,,,-99.99,,2013-02-08 01:41:00,
2013-02-07 17:51:00,43.0,36.0,30.08,SSE,163,0.0,-999.0,77,-99.99,,,-99.99,,2013-02-08 01:51:00,
2013-02-07 18:01:00,42.0,36.0,30.08,SSE,163,0.0,-999.0,78,-99.99,,,-99.99,,2013-02-08 02:01:00,
2013-02-07 18:11:00,42.0,36.0,30.08,SSE,163,0.0,-999.0,78,-99.99,,,-99.99,,2013-02-08 02:11:00,
2013-02-07 18:21:00,41.0,35.0,30.08,SSE,163,0.0,-999.0,80,-99.99,,,-99.99,,2013-02-08 02:21:00,
2013-02-07 18:31:00,40.0,35.0,30.09,SSE,163,0.0,-999.0,83,-99.99,,,-99.99,,2013-02-08 02:31:00,
2013-02-07 18:42:00,40.0,35.0,30.09,SSE,163,0.0,-999.0,83,-99.99,,,-99.99,,2013-02-08 02:42:00,
2013-02-07 18:52:00,40.0,36.0,30.09,SSE,163,0.0,-999.0,85,-99.99,,,-99.99,,2013-02-08 02:52:00,
2013-02-07 19:01:00,39.0,35.0,30.09,SSE,163,0.0,-999.0,85,-99.99,,,-99.99,,2013-02-08 03:01:00,
2013-02-07 19:11:00,39.0,35.0,30.09,SSE,163,0.0,-999.0,85,-99.99,,,-99.99,,2013-02-08 03:11:00,
2013-02-07 19:22:00,39.0,35.0,30.10,SSE,163,0.0,-999.0,86,-99.99,,,-99.99,,2013-02-08 03:22:00,
2013-02-07 19:31:00,38.0,34.0,30.10,SSE,163,0.0,-999.0,87,-99.99,,,-99.99,,2013-02-08 03:31:00,
2013-02-07 19:41:00,38.0,34.0,30.10,SSE,163,0.0,-999.0,87,-99.99,,,-99.99,,2013-02-08 03:41:00,
2013-02-07 19:52:00,38.0,35.0,30.10,SSE,163,0.0,-999.0,89,-99.99,,,-99.99,,2013-02-08 03:52:00,
2013-02-07 20:01:00,38.0,35.0,30.11,SSE,163,0.0,-999.0,89,-99.99,,,-99.99,,2013-02-08 04:01:00,
2013-02-07 20:11:00,38.0,35.0,30.11,SSE,163,0.0,-999.0,89,-99.99,,,-99.99,,2013-02-08 04:11:00,
2013-02-07 20:21:00,38.0,35.0,30.11,SSE,163,0.0,-999.0,90,-99.99,,,-99.99,,2013-02-08 04:21:00,
2013-02-07 20:31:00,37.0,34.0,30.12,SSE,163,0.0,-999.0,90,-99.99,,,-99.99,,2013-02-08 04:31:00,
2013-02-07 20:41:00,37.0,34.0,30.12,SSE,163,0.0,-999.0,90,-99.99,,,-99.99,,2013-02-08 04:41:00,
2013-02-07 20:52:00,37.0,34.0,30.13,SSE,163,0.0,-999.0,90,-99.99,,,-99.99,,2013-02-08 04:52:00,
2013-02-07 21:01:00,37.0,35.0,30.13,SSE,163,0.0,-999.0,91,-99.99,,,-99.99,,2013-02-08 05:01:00,
2013-02-07 21:11:00,37.0,35.0,30.13,SSE,163,0.0,-999.0,91,-99.99,,,-99.99,,2013-02-08 05:11:00,
2013-02-07 21:22:00,36.0,34.0,30.13,SSE,163,0.0,-999.0,91,-99.99,,,-99.99,,2013-02-08 05:22:00,
2013-02-07 21:31:00,36.0,34.0,30.14,SSE,163,0.0,-999.0,92,-99.99,,,-99.99,,2013-02-08 05:31:00,
2013-02-07 21:41:00,36.0,34.0,30.14,SSE,163,0.0,-999.0,92,-99.99,,,-99.99,,2013-02-08 05:41:00,
2013-02-07 21:52:00,36.0,34.0,30.14,SSE,163,0.0,-999.0,92,-99.99,,,-99.99,,2013-02-08 05:52:00,
2013-02-07 22:01:00,36.0,34.0,30.15,SSE,163,0.0,-999.0,92,-99.99,,,-99.99,,2013-02-08 06:01:00,
2013-02-07 22:11:00,36.0,34.0,30.15,SSE,163,0.0,-999.0,92,-99.99,,,-99.99,,2013-02-08 06:11:00,
2013-02-07 22:21:00,35.0,33.0,30.15,SSE,163,0.0,-999.0,92,-99.99,,,-99.99,,2013-02-08 06:21:00,
2013-02-07 22:31:00,35.0,33.0,30.16,SSE,163,0.0,-999.0,92,-99.99,,,-99.99,,2013-02-08 06:31:00,
2013-02-07 22:41:00,35.0,33.0,30.16,SSE,163,0.0,-999.0,92,-99.99,,,-99.99,,2013-02-08 06:41:00,
2013-02-07 22:52:00,35.0,33.0,30.17,SSE,163,0.0,-999.0,93,-99.99,,,-99.99,,2013-02-08 06:52:00,
2013-02-07 23:01:00,34.0,32.0,30.17,SSE,163,0.0,-999.0,93,-99.99,,,-99.99,,2013-02-08 07:01:00,
2013-02-07 23:11:00,34.0,32.0,30.17,SSE,163,0.0,-999.0,93,-99.99,,,-99.99,,2013-02-08 07:11:00,
2013-02-07 23:21:00,34.0,32.0,30.17,SSE,163,0.0,-999.0,93,-99.99,,,-99.99,,2013-02-08 07:21:00,
2013-02-07 23:31:00,34.0,32.0,30.18,SSE,163,0.0,-999.0,94,-99.99,,,-99.99,,2013-02-08 07:31:00,
2013-02-07 23:41:00,34.0,32.0,30.18,SSE,163,0.0,-999.0,94,-99.99,,,-99.99,,2013-02-08 07:41:00,
2013-02-07 23:52:00,34.0,32.0,30.18,SSE,163,0.0,-999.0,94,-99.99,,,-99.99,,2013-02-08 07:52:00,